Location: Tel Aviv
(32.0670°N, 34.7670°E)
Time: 10:52:40
(UTC+02:00)

Vanguard 2 - All Passes

Search period start: 05 December 2023 00:00
Search period end: 15 December 2023 00:00
Orbit: 552 x 2923 km, 32.9° (Epoch: 04 December)

Date Brightness Start Highest point End Pass type
(mag) Time Alt. Az. Time Alt. Az. Time Alt. Az.
05 Dec - 02:07:22 10° WNW 02:18:05 57° SSW 02:24:28 10° SE visible
05 Dec - 04:22:26 10° WSW 04:25:15 13° SW 04:27:40 10° SSW visible
05 Dec - 17:34:30 10° SSW 17:48:38 33° SE 18:02:37 10° E visible
05 Dec - 19:42:44 10° SW 20:00:21 65° SSE 20:14:41 10° ENE visible
05 Dec - 21:55:17 10° W 22:12:41 90° NNW 22:24:17 10° E visible
06 Dec - 00:09:36 10° W 00:24:12 88° S 00:32:48 10° ESE night (unlit)
06 Dec - 02:23:24 10° W 02:33:28 44° SW 02:39:39 10° SE visible
06 Dec - 15:47:47 10° SSE 15:53:36 13° SE 15:59:40 10° ESE daylight
06 Dec - 17:48:52 10° SSW 18:04:04 41° SE 18:19:04 10° E visible
06 Dec - 19:58:12 10° WSW 20:16:05 74° SSE 20:30:28 10° ENE visible
06 Dec - 22:11:18 10° W 22:28:37 87° N 22:40:00 10° E visible
07 Dec - 00:25:36 10° W 00:39:57 80° SSW 00:48:23 10° ESE night (unlit)
07 Dec - 02:39:35 10° W 02:48:42 33° SW 02:54:36 10° SSE visible
07 Dec - 15:59:13 10° S 16:08:52 19° SE 16:19:18 10° E daylight
07 Dec - 18:03:35 10° SW 18:19:32 50° SSE 18:35:14 10° E visible
07 Dec - 20:13:50 10° WSW 20:31:54 81° SSE 20:46:15 10° E visible
07 Dec - 22:27:21 10° W 22:44:32 87° N 22:55:44 10° E visible
08 Dec - 00:41:35 10° WNW 00:55:35 71° SSW 01:03:52 10° ESE night (unlit)
08 Dec - 02:56:02 10° W 03:03:47 24° SW 03:09:12 10° S visible
08 Dec - 16:12:25 10° S 16:24:05 26° SE 16:37:02 10° E daylight
08 Dec - 18:18:36 10° SW 18:35:05 59° SSE 18:51:13 10° ENE visible
08 Dec - 20:29:38 10° WSW 20:47:47 87° SSE 21:02:00 10° E visible
08 Dec - 22:43:23 10° W 23:00:26 89° N 23:11:26 10° E visible
09 Dec - 00:57:34 10° WNW 01:11:06 60° SSW 01:19:14 10° SE night (unlit)
09 Dec - 03:13:04 10° W 03:18:47 17° SW 03:23:12 10° S visible
09 Dec - 16:26:23 10° SSW 16:39:19 33° SE 16:53:57 10° E daylight
09 Dec - 18:33:50 10° SW 18:50:42 67° SSE 19:07:06 10° ENE visible
09 Dec - 20:45:32 10° W 21:03:43 89° N 21:17:46 10° E visible
09 Dec - 22:59:24 10° W 23:16:18 87° SSW 23:27:06 10° ESE visible
10 Dec - 01:13:37 10° WNW 01:26:28 49° SW 01:34:24 10° SE night (unlit)
10 Dec - 03:32:01 10° WSW 03:33:43 11° SW 03:35:17 10° SW visible
10 Dec - 14:40:55 10° SE 14:45:02 12° SE 14:49:27 10° ESE daylight
10 Dec - 16:40:48 10° SSW 16:54:35 42° SE 17:10:25 10° E visible
10 Dec - 18:49:17 10° WSW 19:06:25 76° SSE 19:22:56 10° ENE visible
10 Dec - 21:01:30 10° W 21:19:41 87° N 21:33:32 10° E visible
10 Dec - 23:15:24 10° WNW 23:32:04 80° SSW 23:42:41 10° ESE visible
11 Dec - 01:29:48 10° W 01:41:41 38° SW 01:49:20 10° SSE night (unlit)
11 Dec - 14:51:58 10° SSE 15:00:07 18° SE 15:09:34 10° E daylight
11 Dec - 16:55:34 10° SW 17:09:55 50° SE 17:26:35 10° ENE visible
11 Dec - 19:04:54 10° WSW 19:22:14 82° SSE 19:38:45 10° E visible
11 Dec - 21:17:29 10° W 21:35:39 87° N 21:49:18 10° E visible
11 Dec - 23:31:22 10° WNW 23:47:44 72° SSW 23:58:10 10° ESE visible
12 Dec - 01:46:14 10° W 01:56:47 29° SW 02:03:58 10° SSE night (unlit)
12 Dec - 15:05:11 10° S 15:15:10 25° SE 15:27:23 10° E daylight
12 Dec - 17:10:36 10° SW 17:25:22 60° SSE 17:42:36 10° ENE visible
12 Dec - 19:20:39 10° WSW 19:38:08 88° SSE 19:54:34 10° E visible
12 Dec - 21:33:29 10° W 21:51:36 89° N 22:05:03 10° E visible
12 Dec - 23:47:21 10° WNW 00:03:16 62° SSW 00:13:31 10° SE visible
13 Dec - 02:03:06 10° W 02:11:45 21° SW 02:18:08 10° S night (unlit)
13 Dec - 15:19:10 10° SSW 15:30:14 32° SE 15:44:20 10° E daylight
13 Dec - 17:25:51 10° SW 17:40:55 68° SSE 17:58:32 10° ENE visible
13 Dec - 19:36:29 10° W 19:54:05 89° N 20:10:23 10° E visible
13 Dec - 21:49:26 10° W 22:07:30 86° SSW 22:20:45 10° ESE visible
14 Dec - 00:03:24 10° WNW 00:18:39 52° SW 00:28:40 10° SE visible
14 Dec - 02:20:54 10° W 02:26:39 15° SW 02:31:23 10° SSW night (unlit)
14 Dec - 15:33:38 10° SSW 15:45:22 41° SE 16:00:50 10° E daylight
14 Dec - 17:41:17 10° WSW 17:56:37 77° SSE 18:14:25 10° ENE visible
14 Dec - 19:52:23 10° W 20:10:05 87° N 20:26:13 10° E visible
14 Dec - 22:05:22 10° WNW 22:23:19 80° SSW 22:36:21 10° ESE visible
